Regional Weather Roundup
Issued by NWS

Home | Current Version | Previous Version | Text Only | Print | Product List | Glossary Off
Versions: 1 2 3 4 5 6 7 8 9 10 11 12 13 14 15 16 17 18 19 20 21 22 23 24 25 26 27 28 29 30 31 32 33 34 35 36 37 38 39 40 41 42 43 44 45 46 47 48 49 50

000
ASUS43 KBIS 250710
RWRND

NORTH DAKOTA REGIONAL WEATHER ROUNDUP
NATIONAL WEATHER SERVICE BISMARCK ND
100 AM CST SAT FEB 25 2017

NOTE: "FAIR" INDICATES FEW OR NO CLOUDS BELOW 12,000 FEET WITH NO
SIGNIFICANT WEATHER AND/OR OBSTRUCTIONS TO VISIBILITY.


NDZ001>003-009>011-017-250800-
NORTHWEST NORTH DAKOTA

CITY           SKY/WX    TMP DP  RH WIND       PRES   REMARKS
WILLISTON      CLOUDY    23  20  88 SW5       30.01F WCI  17
MINOT          FLURRIES  23  17  78 SW6       29.99F WCI  16
MINOT AFB      LGT SNOW  23  19  86 W10       29.98F FOG     WCI  12
$$

NDZ018>021-031>035-040>046-250800-
SOUTHWEST NORTH DAKOTA

CITY           SKY/WX    TMP DP  RH WIND       PRES   REMARKS
BISMARCK       CLOUDY    17  14  88 CALM      30.06F
DICKINSON      MOCLDY    18  14  84 SW5       29.97F WCI  11
GARRISON         N/A     14  11  87 SW3       30.00F
HETTINGER ARPT CLOUDY    20  14  77 CALM      30.01F
$$

NDZ004>008-012>016-024-026-027-054-250800-
NORTHEAST NORTH DAKOTA

CITY           SKY/WX    TMP DP  RH WIND       PRES   REMARKS
GRAND FORKS    CLEAR     16   8  71 CALM      30.06F
GRND FRKS AFB  CLEAR     14  10  85 CALM      30.06F
DEVILS LAKE    FAIR      14  11  87 SW5       30.01F WCI   6
$$

NDZ022-023-025-028>030-036>039-047>053-250800-
SOUTHEAST NORTH DAKOTA

CITY           SKY/WX    TMP DP  RH WIND       PRES   REMARKS
FARGO          CLEAR     15  11  83 NW6       30.07F WCI   6
JAMESTOWN      FAIR      15  12  88 SW5       30.04F WCI   8
$$





USA.gov is the U.S. government's official web portal to all federal, state and local government web resources and services.